sat.trackr.live / text

‹ back to catalog

GEESAT-4 05

NORAD 65123 · 2025-170E

PAYLOAD ACTIVE UNKNOWN

§ Identity

Operator
Country
PRC
Launch date
2025-08-08
Launch site
YSLA
Launch vehicle
Mass (kg)
RCS (m²)

External: N2YO · Heavens-Above · Gunter

§ Orbital elements

Epoch: 2026-09-21T21:55:53.476896Z

Period
97.14 min
Inclination
49.9958°
Eccentricity
0.0007494
Mean motion
14.82400545 rev/d
Perigee alt
616.5 km
Apogee alt
627.0 km
Semi-major
6,999.9 km
B*
1.3716e-4
RAAN
41.2528°
Arg perigee
331.0806°
Mean anomaly
28.9716°
Rev number
6,139

§ Raw data

GEESAT-4 051 65123U 25170E   26264.91381339  .00000886  00000+0  13716-3 0  99912 65123  49.9958  41.2528 0007494 331.0806  28.9716 14.82400545 61395

JSON: /api/v1/satellites/65123 · /tle

For live sub-satellite position, see the globe view (requires WebGL).

§ Visibility from observer

Set your observer location to see the next 7 days of passes ≥ 10°. The values pass through the URL so the page stays shareable.

No JS? Fill the form by hand. The geolocation button needs JavaScript.